Showing default

NAVSTAR 74 (USA 262), 40730

Orbit data source: Space-Track

NAVSTAR 74 (USA 262), 40730 is a payload satellite owned by USAF SMC (US) in MEO that was launched on Wed, 15 Jul 2015 UTC via an ATLAS V 401 launch vehicle from the Air Force Eastern Test Range (AFETR). Payload-class satellites include a variety of spacecraft equipped with specific instruments for various scientific and technological missions. These include communications satellites like Starlink; space stations such as the ISS; scientific satellites like the Hubble; Earth observation satellites from companies like Planet Labs, Umbra, and HawkEye 360; GPS; miniature CubeSats for education and research; and military/defense satellites.

Loading next visibility...
Identifier
40730, 2015-033A
Orbit
MEO
Country
Flag of USUS
Related business
Manufacturer
Boeing/ES
Mission
Operational Defense Navigation
Bus & Motor
GPS IIF, AOCS
Mass
1,630 kg wet, ~1,500 kg dry
Launch date (UTC)
2015-07-15 (11 years ago)
Launch vehicle
ATLAS V 401
Launch site
Air Force Eastern Test Range (AFETR)
Object type
Payload
Rocket body
Debris
Shape & HBR
Box + 2 Pan, 9.0 m
Radar Cross Section
13.960 m², Large (>1 m²)

Expand to show TLE details & history
Last TLE update: 2 days ago

TLE from 2 days ago
0 NAVSTAR 74 (USA 262)
1 40730U 15033A   26265.94693845  .00000021  00000-0  00000-0 0  9998
2 40730  53.9143 263.0487 0117660  30.6235 330.0753  2.00551193 81951
Epoch: 2026-09-22T22:43Z
TLE epoch observation values (Epoch: 2026-09-22T22:43:35.482Z)
Latitude
-0.00002°
Longitude
-79.64867°
Altitude
19,913.86 km
Speed
3.913 km/s
True Right ascension
17h 32m 13s
True Declination
0° 00' 00"
Sunlit
Object was in daylight at epoch
Visualization orbit readout
Latitude
Unknown
Longitude
Unknown
Altitude
Unknown
Speed
Unknown
Apparent Right ascension
Unknown
Apparent Declination
Unknown
Sunlit
N/A
Visualization observer readout
Local Sidereal Time
07:24:56
Azimuth
Unknown
Elevation
Unknown
Doppler factor
Unknown
Orbital elements
Apogee altitude
20,495.879 km
Perigee altitude
19,870.834 km
Semi-major axis
26,561.494 km
Eccentricity
0.01177
Inclination
53.9143°
RAAN
263.0487°
Arg. of periapsis
30.6235°
True anomaly
329.39403°
Mean anomaly
330.0753°
Eccentric anomaly
329.73554°
Mean motion
0.50138 °/min
Orbital period
718.02 mins
BSTAR
0
Loading maneuver chart data...
Computing Atmospheric mass density...
Loading historical data...
Loading historical data...
Loading historical data...
Loading historical data...
Loading historical data...
Loading historical data...
Loading historical data...
Other satellites on launch #33 in the year 2015 (2015-07-15 UTC)

Documentation

Showing up to 5 results
|